| time (UTC) | temp C | wind direction | speed KPH | gust KPH | rain 1hr cm | rain 24hr cm | rain mn cm | humidity % | barometer mb |
| 20260502224556 | 19 | 135 | 4.8 | 11.3 | 0.00 | 0.00 | 0.00 | 27 | 1006.1 |
| 20260502223053 | 18 | 82 | 0.0 | 6.4 | 0.00 | 0.00 | 0.00 | 33 | 1006.4 |
| 20260502221550 | 17 | 124 | 3.2 | 9.7 | 0.00 | 0.00 | 0.00 | 31 | 1006.6 |
| 20260502220049 | 17 | 88 | 3.2 | 11.3 | 0.00 | 0.00 | 0.00 | 34 | 1006.9 |
| 20260502214558 | 17 | 53 | 4.8 | 11.3 | 0.00 | 0.00 | 0.00 | 36 | 1007.1 |
| 20260502213047 | 16 | 127 | 3.2 | 11.3 | 0.00 | 0.00 | 0.00 | 36 | 1007.4 |
| 20260502211545 | 16 | 80 | 1.6 | 14.5 | 0.00 | 0.00 | 0.00 | 37 | 1007.6 |
| 20260502210046 | 16 | 68 | 6.4 | 16.1 | 0.00 | 0.00 | 0.00 | 37 | 1007.7 |
| 20260502204545 | 17 | 53 | 3.2 | 11.3 | 0.00 | 0.00 | 0.00 | 32 | 1007.6 |
| 20260502203042 | 18 | 130 | 3.2 | 12.9 | 0.00 | 0.00 | 0.00 | 31 | 1007.6 |
| 20260502201539 | 17 | 112 | 1.6 | 12.9 | 0.00 | 0.00 | 0.00 | 34 | 1007.8 |
| 20260502200037 | 17 | 93 | 0.0 | 14.5 | 0.00 | 0.00 | 0.00 | 33 | 1008.0 |
| 20260502194537 | 16 | 285 | 0.0 | 12.9 | 0.00 | 0.00 | 0.00 | 39 | 1008.2 |
| 20260502193035 | 16 | 42 | 4.8 | 14.5 | 0.00 | 0.00 | 0.00 | 34 | 1008.4 |
| 20260502191530 | 16 | 86 | 3.2 | 14.5 | 0.00 | 0.00 | 0.00 | 36 | 1008.6 |
| 20260502190026 | 16 | 62 | 1.6 | 11.3 | 0.00 | 0.00 | 0.00 | 35 | 1009.0 |
| 20260502184532 | 16 | 48 | 6.4 | 17.7 | 0.00 | 0.00 | 0.00 | 35 | 1009.1 |
| 20260502183021 | 16 | 63 | 4.8 | 17.7 | 0.00 | 0.00 | 0.00 | 36 | 1009.1 |
| 20260502181521 | 16 | 89 | 3.2 | 14.5 | 0.00 | 0.00 | 0.00 | 39 | 1009.2 |
| 20260502163100 | 13 | 42 | 6.4 | 12.9 | 0.00 | 0.00 | 0.00 | 40 | 1010.1 |
| 20260502161557 | 13 | 110 | 1.6 | 8.0 | 0.00 | 0.00 | 0.00 | 40 | 1010.2 |
| 20260502151540 | 10 | 138 | 0.0 | 1.6 | 0.00 | 0.00 | 0.00 | 50 | 1011.2 |
| 20260502123015 | 1 | 204 | 1.6 | 6.4 | 0.00 | 0.00 | 0.00 | 66 | 1011.7 |
| 20260502121516 | 1 | 215 | 1.6 | 8.0 | 0.00 | 0.00 | 0.00 | 66 | 1011.6 |
| 20260502114513 | 1 | 212 | 3.2 | 9.7 | 0.00 | 0.00 | 0.00 | 66 | 1011.7 |
| 20260502113008 | 1 | 219 | 3.2 | 14.5 | 0.00 | 0.00 | 0.00 | 64 | 1011.6 |
| 20260502111508 | 1 | 222 | 3.2 | 9.7 | 0.00 | 0.00 | 0.00 | 65 | 1011.5 |
| 20260502110007 | 1 | 233 | 3.2 | 9.7 | 0.00 | 0.00 | 0.00 | 65 | 1011.6 |
| 20260502104506 | 1 | 271 | 3.2 | 11.3 | 0.00 | 0.00 | 0.00 | 64 | 1011.6 |
| 20260502103010 | 1 | 211 | 0.0 | 6.4 | 0.00 | 0.00 | 0.00 | 65 | 1011.8 |
| 20260502101501 | 2 | 210 | 1.6 | 8.0 | 0.00 | 0.00 | 0.00 | 63 | 1011.6 |
| 20260502100119 | 2 | 162 | 3.2 | 8.0 | 0.00 | 0.00 | 0.00 | 63 | 1011.4 |
| 20260502071532 | 4 | 236 | 4.8 | 14.5 | 0.00 | 0.00 | 0.00 | 54 | 1011.3 |
| 20260502070036 | 4 | 199 | 4.8 | 16.1 | 0.00 | 0.00 | 0.00 | 54 | 1011.3 |
| 20260502064527 | 4 | 172 | 6.4 | 17.7 | 0.00 | 0.00 | 0.00 | 53 | 1011.2 |
| 20260502063027 | 4 | 236 | 8.0 | 17.7 | 0.00 | 0.00 | 0.00 | 54 | 1011.2 |
| 20260502061523 | 4 | 236 | 4.8 | 16.1 | 0.00 | 0.00 | 0.00 | 54 | 1011.2 |
| 20260502060019 | 4 | 221 | 4.8 | 9.7 | 0.00 | 0.00 | 0.00 | 54 | 1011.1 |
| 20260502054518 | 5 | 237 | 6.4 | 12.9 | 0.00 | 0.00 | 0.00 | 55 | 1011.1 |
| 20260502053017 | 5 | 270 | 4.8 | 17.7 | 0.00 | 0.00 | 0.00 | 54 | 1011.1 |
| 20260502051524 | 5 | 253 | 4.8 | 16.1 | 0.00 | 0.00 | 0.00 | 55 | 1011.1 |
| 20260502050021 | 5 | 217 | 6.4 | 12.9 | 0.00 | 0.00 | 0.00 | 54 | 1011.2 |
| 20260502044514 | 6 | 236 | 4.8 | 14.5 | 0.00 | 0.00 | 0.00 | 54 | 1011.1 |
| 20260502043015 | 6 | 219 | 1.6 | 8.0 | 0.00 | 0.00 | 0.00 | 55 | 1011.1 |
| 20260502041513 | 6 | 229 | 3.2 | 9.7 | 0.00 | 0.00 | 0.00 | 55 | 1011.2 |
| 20260502040012 | 6 | 219 | 1.6 | 6.4 | 0.00 | 0.00 | 0.00 | 55 | 1011.2 |
| 20260502034512 | 6 | 242 | 1.6 | 8.0 | 0.00 | 0.00 | 0.00 | 56 | 1011.0 |
| 20260502033011 | 7 | 230 | 1.6 | 6.4 | 0.00 | 0.00 | 0.00 | 56 | 1010.9 |
| 20260502031511 | 7 | 254 | 1.6 | 6.4 | 0.00 | 0.00 | 0.00 | 57 | 1010.7 |
| 20260502030010 | 7 | 228 | 0.0 | 3.2 | 0.00 | 0.00 | 0.00 | 59 | 1010.4 |
| 20260502024528 | 7 | 210 | 0.0 | 3.2 | 0.00 | 0.00 | 0.00 | 56 | 1010.0 |
| 20260502023009 | 7 | 224 | 0.0 | 1.6 | 0.00 | 0.00 | 0.00 | 59 | 1009.8 |
| 20260502021508 | 8 | 237 | 0.0 | 1.6 | 0.00 | 0.00 | 0.00 | 55 | 1009.7 |
| 20260502020007 | 9 | 236 | 0.0 | 1.6 | 0.00 | 0.00 | 0.00 | 51 | 1009.7 |
| 20260502014519 | 10 | 233 | 0.0 | 0.0 | 0.00 | 0.00 | 0.00 | 47 | 1009.6 |
| 20260502013006 | 11 | 233 | 0.0 | 1.6 | 0.00 | 0.00 | 0.00 | 42 | 1009.7 |
| 20260502011505 | 13 | 278 | 0.0 | 3.2 | 0.00 | 0.00 | 0.00 | 38 | 1009.7 |
| 20260502010005 | 15 | 307 | 0.0 | 9.7 | 0.00 | 0.00 | 0.00 | 32 | 1009.8 |
| 20260502004503 | 17 | 217 | 0.0 | 4.8 | 0.00 | 0.00 | 0.00 | 25 | 1009.8 |
| 20260502003001 | 19 | 314 | 0.0 | 3.2 | 0.00 | 0.00 | 0.00 | 24 | 1009.9 |
| 20260502001602 | 19 | 143 | 0.0 | 3.2 | 0.00 | 0.00 | 0.00 | 23 | 1010.0 |
| 20260502000059 | 18 | 322 | 1.6 | 11.3 | 0.00 | 0.00 | 0.00 | 21 | 1010.1 |
| 20260501234558 | 18 | 55 | 9.7 | 17.7 | 0.00 | 0.00 | 0.00 | 19 | 1010.1 |
| 20260501233052 | 18 | 184 | 1.6 | 9.7 | 0.00 | 0.00 | 0.00 | 20 | 1010.2 |
| 20260501231558 | 18 | 122 | 1.6 | 9.7 | 0.00 | 0.00 | 0.00 | 22 | 1010.4 |
| 20260501230048 | 19 | 210 | 1.6 | 11.3 | 0.00 | 0.00 | 0.00 | 19 | 1010.8 |